Ana Sayfa
METAR-TAF:

METAR-TAF

Havaalanları :

Winston Field

Snyder, Teksas, Amerika Birleşik Devletleri

Enlem: 32-41-36N, Boylam: 100-57-01W, yükseklik: 741 m

Güncel hava durumu gözlemi

Rapor saat 18:35 UTC de 10 dakika önce yapıldı.
Rüzgar batı/güneybatıdan 6 kt
Sıcaklık 16°C
Nem 36%
Basınç 1013 hPa
Görüş mesafesi: 16.1 km
Açık gökyüzü

METAR: KSNK 241835Z AUTO 25006KT 10SM CLR 16/01 A2990 RMK AO2 T01590006

Saat: 12:45 (18:45 UTC)


TAF: eksik

4.000'den fazla havaalanı için hava durumu gözlemleri ve tahminleri (METAR ve TAF raporları).

Kullanılabilir istasyonlar harita üzerinde sarı ve kırmızı noktalarla gösterilir.

İstasyonun adını görmek için fareyi noktanın üzerinde gezdirin.

Sonrasında hava gözlem ve tahminlerini görmek için tıklayın.

Haritayı değiştirmek için: yaklaştırmak için siyah artı işaretli yeşil düğmeye ve uzaklaştırmak için de eksi işaretli düğmeye hızla tıklayın; bitişik haritalar için yeşil okları kullanın.


METAR-TAF: